Weather History for KDTN - June, 2014

Change the Weather History Date:

Monday, June 16, 2014

  Actual Average (KSHV) Record (KSHV)
Temperature  
Mean Temperature 82 °F 80 °F  
Max Temperature 91 °F 90 °F 103 °F (1875)
Min Temperature 73 °F 70 °F 56 °F (1989)
Degree Days  
Heating Degree Days 0 0  
Month to date heating degree days 0  
Since 1 June heating degree days 0  
Since 1 July heating degree days 2226  
Cooling Degree Days 17 15  
Month to date cooling degree days 218  
Year to date cooling degree days 616  
Since 1 June cooling degree days 218  
Growing Degree Days 32 (Base 50)    
Moisture  
Dew Point 71 °F    
Average Humidity 73    
Maximum Humidity 91    
Minimum Humidity 48    
Precipitation  
Precipitation 0.00 in 0.20 in 2.05 in (1873)
Month to date precipitation 2.90  
Year to date precipitation 25.11  
Snow  
Snow 0.00 in - - ()
Month to date snowfall  
Since 1 June snowfall  
Since 1 July snowfall  
Snow Depth -    
Sea Level Pressure  
Sea Level Pressure 30.05 in    
Wind  
Wind Speed 8 mph (SSE)    
Max Wind Speed 14 mph    
Max Gust Speed 23 mph    
Visibility 10 miles    
Events      
T = Trace of Precipitation, MM = Missing Value Source: NWS Daily Summary

Daily Weather History Graph

Daily Weather History Graph

Search for Another Location

Airport or City:

Trip Planner

Search our weather history database for the weather conditions in past years. The results will help you decide how hot, cold, wet, or windy it might be!

Date:

Astronomy

Jun. 16, 2014 Rise Set
Actual Time 6:07 AM CDT 8:24 PM CDT
Civil Twilight 5:38 AM CDT 8:52 PM CDT
Nautical Twilight 5:03 AM CDT 9:27 PM CDT
Astronomical Twilight 4:25 AM CDT 10:05 PM CDT
Moon 11:29 PM CDT (6/16) 10:00 AM CDT (6/16)
Length of Visible Light 15h 14m
Length of Day
14h 17m
Waning Gibbous, 83% of the Moon is Illuminated
Jun 16
Waning Gibbous
Jun 19
Last Quarter
Jun 27
New
Jul 5
First Quarter
Jul 12
Full

Hourly Weather History & Observations

Time (CDT) Temp. Heat Index Dew Point Humidity Pressure Visibility Wind Dir Wind Speed Gust Speed Precip Events Conditions
12:53 AM 80.1 °F 83.8 °F 72.0 °F 76% 29.99 in 10.0 mi South 10.4 mph 17.3 mph N/A   Clear
1:53 AM 78.1 °F - 72.0 °F 81% 30.00 in 10.0 mi SSE 6.9 mph - N/A   Clear
2:53 AM 75.0 °F - 72.0 °F 90% 30.01 in 10.0 mi East 3.5 mph - N/A   Mostly Cloudy
3:53 AM 75.9 °F - 72.0 °F 87% 30.02 in 10.0 mi SE 3.5 mph - N/A   Overcast
4:53 AM 75.9 °F - 73.0 °F 91% 30.04 in 10.0 mi SE 3.5 mph - N/A   Overcast
5:53 AM 75.0 °F - 72.0 °F 90% 30.05 in 10.0 mi SE 4.6 mph - N/A   Overcast
6:53 AM 73.9 °F - 71.1 °F 91% 30.07 in 9.0 mi Calm Calm - N/A   Overcast
7:22 AM 75.2 °F - 71.6 °F 89% 30.09 in 9.0 mi SE 6.9 mph - N/A   Overcast
7:30 AM 75.2 °F - 71.6 °F 89% 30.10 in 9.0 mi SE 5.8 mph - N/A   Overcast
7:53 AM 75.0 °F - 72.0 °F 90% 30.09 in 8.0 mi SE 8.1 mph - N/A   Overcast
8:23 AM 77.0 °F - 71.6 °F 83% 30.11 in 8.0 mi SE 6.9 mph - N/A   Overcast
8:49 AM 78.8 °F - 73.4 °F 83% 30.11 in 8.0 mi SSE 8.1 mph - N/A   Overcast
8:53 AM 79.0 °F - 73.0 °F 82% 30.10 in 8.0 mi SSE 10.4 mph - N/A   Overcast
9:44 AM 80.6 °F 85.4 °F 73.4 °F 79% 30.11 in 8.0 mi South 9.2 mph - N/A   Overcast
9:53 AM 81.0 °F 85.8 °F 73.0 °F 77% 30.10 in 9.0 mi South 8.1 mph - N/A   Overcast
10:41 AM 84.2 °F 90.9 °F 73.4 °F 70% 30.10 in 9.0 mi SSE 10.4 mph - N/A   Mostly Cloudy
10:53 AM 84.0 °F 90.2 °F 73.0 °F 69% 30.09 in 9.0 mi SE 10.4 mph - N/A   Mostly Cloudy
11:53 AM 86.0 °F 93.0 °F 73.0 °F 65% 30.08 in 10.0 mi SE 12.7 mph - N/A   Mostly Cloudy
12:13 PM 87.8 °F 93.8 °F 71.6 °F 58% 30.08 in 10.0 mi SSE 11.5 mph - N/A   Mostly Cloudy
12:53 PM 87.1 °F 93.6 °F 72.0 °F 61% 30.06 in 10.0 mi SSE 9.2 mph - N/A   Mostly Cloudy
1:53 PM 90.0 °F 96.4 °F 71.1 °F 54% 30.04 in 10.0 mi South 11.5 mph - N/A   Partly Cloudy
2:53 PM 90.0 °F 95.4 °F 70.0 °F 52% 30.02 in 10.0 mi South 13.8 mph 23.0 mph N/A   Mostly Cloudy
3:53 PM 91.9 °F 97.4 °F 70.0 °F 48% 30.01 in 10.0 mi SSE 12.7 mph - N/A   Partly Cloudy
4:53 PM 90.0 °F 93.6 °F 68.0 °F 48% 29.99 in 10.0 mi South 13.8 mph 19.6 mph N/A   Mostly Cloudy
5:53 PM 88.0 °F 90.7 °F 66.9 °F 49% 30.00 in 10.0 mi SSW 12.7 mph - N/A   Clear
6:53 PM 86.0 °F 88.8 °F 66.9 °F 53% 29.99 in 10.0 mi South 9.2 mph - N/A   Clear
7:53 PM 84.0 °F 87.8 °F 69.1 °F 61% 30.00 in 10.0 mi SSE 10.4 mph - N/A   Clear
8:53 PM 82.0 °F 85.9 °F 70.0 °F 67% 30.01 in 10.0 mi SSE 9.2 mph - N/A   Clear
9:53 PM 80.1 °F 83.2 °F 70.0 °F 71% 30.02 in 10.0 mi SSE 6.9 mph - N/A   Clear
10:53 PM 79.0 °F - 70.0 °F 74% 30.03 in 10.0 mi SSE 8.1 mph - N/A   Clear
11:53 PM 78.1 °F - 71.1 °F 79% 30.04 in 10.0 mi SSE 8.1 mph - N/A   Clear